Карточка аэропорта URRP

Внимание!
Информация на этой странице в стадии наполнения.
Если вы не увидели какой-то информации, или заметили неточность - пожалуйста сообщите нам!
Спасибо!
Команда RU-STAFF
Название аэропортаПлатов
Название аэропорта (англ.)Platov
Превышение282 ft. (86 m.)
Координаты47°29.634', 39°55.482'
Высота перехода3500 ft
Эшелон переходаFL50 (QNH >= 996); FL60 (QNH < 996)
Коды ответчика1001-1017
Зона ОрВДРостов-на-Дону РПИ (URRV)
Данные METARURRP 100730Z 12008MPS 9999 FEW/// SCT023 02/02 Q1021 R05/290053 NOSIG RMK QFE761/1015
Проноз погоды (TAF)URRP 100456Z 1006/1106 11006G13MPS 6000 SCT016 SCT020CB TEMPO 1006/1012 13008G16MPS -SHRA SCT007 BKN020CB PROB40 TEMPO 1006/1012 -TSRA TEMPO 1018/1106 -SHRA FEW003 BKN020CB
NOTAMshow/hide NOTAM
AWOS   TABLE

Информация о ВПП

ВПП Длина ВПП (м.) Покрытие Курс ВПП Частота ILS
053900Цементобетон46111.5
233900Цементобетон226110.9

Диспетчерские позиции

Позывной Наименование органа УВД Частота
URRP_APPПлатов-подход128.2
URRP_DELПлатов-деливери127.1
URRP_R_APPПлатов - Круг121.2
URRP_TWRПлатов-Вышка119.7
URRP_GNDПлатов - руление119.0



Спутниковое изображение